| time (UTC) | temp F | wind direction | speed MPH | gust MPH | rain 1hr in | rain 24hr in | rain mn in | humidity % | barometer mb |
| 20260901070059 | 62 | 0 | 0.0 | 10.0 | 0.00 | 0.06 | 0.00 | 87 | 1020.0 |
| 20260901065545 | 62 | 0 | 0.0 | 10.0 | 0.00 | 0.06 | 0.00 | 87 | 1020.1 |
| 20260901065046 | 62 | 0 | 2.0 | 10.0 | 0.00 | 0.06 | 0.00 | 87 | 1020.1 |
| 20260901064606 | 62 | 0 | 3.0 | 11.0 | 0.00 | 0.06 | 0.00 | 87 | 1020.1 |
| 20260901064042 | 62 | 0 | 2.0 | 11.0 | 0.00 | 0.06 | 0.00 | 88 | 1020.1 |
| 20260901063545 | 62 | 0 | 2.0 | 11.0 | 0.00 | 0.06 | 0.00 | 88 | 1020.0 |
| 20260901063105 | 62 | 223 | 1.0 | 8.0 | 0.00 | 0.06 | 0.00 | 88 | 1020.0 |
| 20260901062545 | 62 | 0 | 1.0 | 8.0 | 0.00 | 0.06 | 0.00 | 88 | 1020.0 |
| 20260901062048 | 62 | 0 | 0.0 | 6.0 | 0.00 | 0.06 | 0.00 | 89 | 1019.8 |
| 20260901061603 | 61 | 226 | 0.0 | 5.0 | 0.00 | 0.06 | 0.00 | 90 | 1019.8 |
| 20260901061045 | 61 | 0 | 0.0 | 0.0 | 0.00 | 0.06 | 0.00 | 90 | 1019.8 |
| 20260901060546 | 60 | 0 | 0.0 | 7.0 | 0.00 | 0.06 | 0.00 | 90 | 1019.7 |
| 20260901060117 | 60 | 0 | 0.0 | 7.0 | 0.00 | 0.06 | 0.00 | 90 | 1019.7 |
| 20260901055545 | 60 | 0 | 0.0 | 7.0 | 0.00 | 0.06 | 0.00 | 91 | 1019.6 |
| 20260901055046 | 60 | 229 | 0.0 | 7.0 | 0.00 | 0.06 | 0.00 | 91 | 1019.6 |
| 20260901054606 | 60 | 0 | 0.0 | 7.0 | 0.00 | 0.06 | 0.00 | 91 | 1019.7 |
| 20260901054045 | 60 | 0 | 0.0 | 7.0 | 0.00 | 0.06 | 0.00 | 91 | 1019.6 |
| 20260901053546 | 60 | 0 | 0.0 | 6.0 | 0.00 | 0.06 | 0.00 | 91 | 1019.5 |
| 20260901053114 | 60 | 0 | 0.0 | 0.0 | 0.00 | 0.06 | 0.00 | 91 | 1019.5 |
| 20260901052546 | 59 | 0 | 0.0 | 0.0 | 0.00 | 0.06 | 0.00 | 91 | 1019.5 |
| 20260901052045 | 60 | 0 | 0.0 | 0.0 | 0.00 | 0.06 | 0.00 | 91 | 1019.4 |
| 20260901051611 | 60 | 0 | 0.0 | 0.0 | 0.00 | 0.06 | 0.00 | 91 | 1019.3 |
| 20260901051045 | 60 | 0 | 0.0 | 1.0 | 0.00 | 0.06 | 0.00 | 90 | 1019.4 |
| 20260901050546 | 60 | 0 | 0.0 | 1.0 | 0.00 | 0.06 | 0.00 | 90 | 1019.2 |
| 20260901050107 | 60 | 0 | 0.0 | 0.0 | 0.00 | 0.06 | 0.00 | 90 | 1019.2 |
| 20260901045544 | 60 | 0 | 0.0 | 5.0 | 0.00 | 0.06 | 0.00 | 90 | 1019.1 |
| 20260901045047 | 60 | 0 | 0.0 | 5.0 | 0.00 | 0.06 | 0.00 | 90 | 1019.1 |
| 20260901044609 | 60 | 0 | 0.0 | 5.0 | 0.00 | 0.06 | 0.00 | 90 | 1019.1 |
| 20260901044045 | 60 | 0 | 0.0 | 5.0 | 0.00 | 0.06 | 0.00 | 90 | 1018.9 |
| 20260901043546 | 60 | 0 | 0.0 | 0.0 | 0.00 | 0.06 | 0.00 | 90 | 1018.9 |
| 20260901043126 | 60 | 0 | 0.0 | 6.0 | 0.00 | 0.06 | 0.00 | 90 | 1018.8 |
| 20260901042545 | 60 | 0 | 0.0 | 6.0 | 0.00 | 0.06 | 0.00 | 91 | 1018.7 |
| 20260901042046 | 60 | 0 | 0.0 | 6.0 | 0.00 | 0.06 | 0.00 | 91 | 1018.6 |
| 20260901041603 | 60 | 0 | 0.0 | 2.0 | 0.00 | 0.06 | 0.00 | 91 | 1018.6 |
| 20260901041047 | 60 | 0 | 0.0 | 2.0 | 0.00 | 0.06 | 0.00 | 91 | 1018.8 |
| 20260901040546 | 60 | 0 | 0.0 | 0.0 | 0.00 | 0.06 | 0.00 | 91 | 1018.7 |
| 20260901040125 | 60 | 0 | 0.0 | 0.0 | 0.00 | 0.06 | 0.00 | 91 | 1018.7 |
| 20260901035547 | 60 | 0 | 0.0 | 0.0 | 0.00 | 0.06 | 0.00 | 91 | 1018.6 |
| 20260901035047 | 60 | 0 | 0.0 | 0.0 | 0.00 | 0.06 | 0.00 | 91 | 1018.6 |
| 20260901034610 | 60 | 0 | 0.0 | 0.0 | 0.00 | 0.06 | 0.00 | 90 | 1018.5 |
| 20260901034046 | 61 | 0 | 0.0 | 1.0 | 0.00 | 0.06 | 0.00 | 90 | 1018.4 |
| 20260901033546 | 61 | 0 | 0.0 | 4.0 | 0.00 | 0.06 | 0.00 | 90 | 1018.5 |
| 20260901033136 | 61 | 0 | 0.0 | 10.0 | 0.00 | 0.06 | 0.00 | 90 | 1018.5 |
| 20260901032548 | 61 | 0 | 0.0 | 10.0 | 0.00 | 0.06 | 0.00 | 90 | 1018.4 |
| 20260901032047 | 61 | 237 | 0.0 | 9.0 | 0.00 | 0.06 | 0.00 | 90 | 1018.4 |
| 20260901031623 | 61 | 0 | 0.0 | 8.0 | 0.00 | 0.06 | 0.00 | 90 | 1018.4 |
| 20260901031047 | 61 | 232 | 0.0 | 5.0 | 0.00 | 0.06 | 0.00 | 90 | 1018.4 |
| 20260901030550 | 61 | 0 | 0.0 | 4.0 | 0.00 | 0.06 | 0.00 | 90 | 1018.4 |
| 20260901030105 | 61 | 0 | 0.0 | 9.0 | 0.00 | 0.06 | 0.00 | 90 | 1018.5 |
| 20260901025547 | 61 | 0 | 0.0 | 9.0 | 0.00 | 0.07 | 0.00 | 90 | 1018.5 |
| 20260901025047 | 61 | 248 | 0.0 | 7.0 | 0.00 | 0.07 | 0.00 | 90 | 1018.4 |
| 20260901024603 | 61 | 240 | 0.0 | 0.0 | 0.00 | 0.07 | 0.00 | 90 | 1018.4 |
| 20260901024047 | 61 | 0 | 0.0 | 0.0 | 0.00 | 0.07 | 0.00 | 90 | 1018.4 |
| 20260901023546 | 61 | 0 | 0.0 | 3.0 | 0.00 | 0.07 | 0.00 | 90 | 1018.4 |
| 20260901023109 | 61 | 0 | 0.0 | 8.0 | 0.00 | 0.07 | 0.00 | 90 | 1018.4 |
| 20260901022546 | 61 | 0 | 1.0 | 8.0 | 0.00 | 0.07 | 0.00 | 90 | 1018.3 |
| 20260901022046 | 61 | 0 | 1.0 | 6.0 | 0.00 | 0.07 | 0.00 | 90 | 1018.3 |
| 20260901021558 | 61 | 0 | 0.0 | 10.0 | 0.00 | 0.07 | 0.00 | 90 | 1018.3 |
| 20260901021048 | 61 | 0 | 0.0 | 10.0 | 0.00 | 0.07 | 0.00 | 90 | 1018.4 |
| 20260901020545 | 61 | 0 | 0.0 | 8.0 | 0.00 | 0.07 | 0.00 | 90 | 1018.3 |
| 20260901020057 | 61 | 0 | 1.0 | 10.0 | 0.00 | 0.07 | 0.00 | 90 | 1018.3 |
| 20260901015543 | 61 | 205 | 0.0 | 10.0 | 0.00 | 0.07 | 0.00 | 90 | 1018.2 |
| 20260901015047 | 61 | 0 | 1.0 | 9.0 | 0.00 | 0.07 | 0.00 | 89 | 1018.2 |
| 20260901014608 | 61 | 0 | 0.0 | 8.0 | 0.00 | 0.07 | 0.00 | 90 | 1018.3 |
| 20260901014046 | 61 | 0 | 1.0 | 8.0 | 0.00 | 0.07 | 0.00 | 90 | 1018.3 |
| 20260901013546 | 61 | 228 | 0.0 | 6.0 | 0.00 | 0.07 | 0.00 | 90 | 1018.3 |
| 20260901013104 | 61 | 221 | 0.0 | 5.0 | 0.00 | 0.07 | 0.00 | 90 | 1018.2 |
| 20260901012546 | 61 | 0 | 1.0 | 8.0 | 0.00 | 0.07 | 0.00 | 90 | 1018.3 |
| 20260901012048 | 61 | 0 | 0.0 | 8.0 | 0.00 | 0.07 | 0.00 | 90 | 1018.2 |
| 20260901011604 | 61 | 0 | 0.0 | 8.0 | 0.00 | 0.07 | 0.00 | 90 | 1018.3 |
| 20260901011047 | 61 | 0 | 1.0 | 7.0 | 0.00 | 0.07 | 0.00 | 90 | 1018.2 |
| 20260901010547 | 60 | 0 | 0.0 | 7.0 | 0.00 | 0.07 | 0.00 | 90 | 1018.2 |
| 20260901010104 | 60 | 0 | 0.0 | 7.0 | 0.00 | 0.07 | 0.00 | 90 | 1018.2 |
| 20260901005546 | 60 | 0 | 0.0 | 7.0 | 0.00 | 0.07 | 0.00 | 90 | 1018.2 |
| 20260901005046 | 60 | 0 | 0.0 | 6.0 | 0.00 | 0.07 | 0.00 | 90 | 1018.2 |
| 20260901004609 | 60 | 0 | 0.0 | 9.0 | 0.00 | 0.07 | 0.00 | 90 | 1018.1 |
| 20260901004046 | 60 | 0 | 1.0 | 9.0 | 0.00 | 0.07 | 0.00 | 90 | 1018.1 |
| 20260901003546 | 60 | 0 | 1.0 | 9.0 | 0.00 | 0.07 | 0.00 | 90 | 1018.0 |
| 20260901003105 | 60 | 0 | 0.0 | 7.0 | 0.00 | 0.07 | 0.00 | 90 | 1018.0 |
| 20260901002547 | 59 | 0 | 0.0 | 6.0 | 0.00 | 0.07 | 0.00 | 90 | 1018.1 |
| 20260901002047 | 60 | 0 | 0.0 | 6.0 | 0.00 | 0.07 | 0.00 | 89 | 1018.0 |
| 20260901001621 | 60 | 0 | 0.0 | 6.0 | 0.00 | 0.07 | 0.00 | 89 | 1017.9 |
| 20260901001047 | 60 | 0 | 0.0 | 9.0 | 0.00 | 0.07 | 0.00 | 89 | 1017.8 |
| 20260901000546 | 60 | 0 | 0.0 | 9.0 | 0.00 | 0.07 | 0.00 | 89 | 1017.7 |
| 20260901000114 | 60 | 0 | 0.0 | 10.0 | 0.00 | 0.07 | 0.00 | 88 | 1017.8 |
| 20260831235547 | 60 | 0 | 1.0 | 10.0 | 0.00 | 0.07 | 0.00 | 88 | 1017.9 |
| 20260831235047 | 60 | 244 | 2.0 | 10.0 | 0.00 | 0.07 | 0.00 | 88 | 1018.0 |
| 20260831234606 | 60 | 0 | 1.0 | 9.0 | 0.00 | 0.07 | 0.00 | 88 | 1017.9 |
| 20260831234047 | 60 | 0 | 0.0 | 7.0 | 0.00 | 0.07 | 0.00 | 88 | 1018.0 |
| 20260831233546 | 59 | 0 | 0.0 | 4.0 | 0.00 | 0.07 | 0.00 | 88 | 1018.0 |
| 20260831233104 | 59 | 0 | 0.0 | 3.0 | 0.00 | 0.07 | 0.00 | 87 | 1017.8 |
| 20260831232546 | 60 | 0 | 0.0 | 4.0 | 0.00 | 0.07 | 0.00 | 88 | 1018.0 |
| 20260831232045 | 59 | 0 | 0.0 | 4.0 | 0.00 | 0.07 | 0.00 | 88 | 1017.9 |
| 20260831231600 | 59 | 234 | 0.0 | 5.0 | 0.00 | 0.07 | 0.00 | 88 | 1017.9 |
| 20260831231046 | 59 | 0 | 0.0 | 5.0 | 0.00 | 0.07 | 0.00 | 88 | 1017.8 |
| 20260831230545 | 59 | 0 | 0.0 | 5.0 | 0.00 | 0.07 | 0.00 | 88 | 1017.8 |
| 20260831230110 | 59 | 0 | 0.0 | 0.0 | 0.00 | 0.07 | 0.00 | 88 | 1017.7 |
| 20260831225546 | 60 | 0 | 0.0 | 0.0 | 0.00 | 0.07 | 0.00 | 87 | 1017.8 |
| 20260831225046 | 60 | 0 | 0.0 | 6.0 | 0.00 | 0.07 | 0.00 | 87 | 1017.8 |
| 20260831224558 | 60 | 0 | 0.0 | 6.0 | 0.00 | 0.07 | 0.00 | 87 | 1017.7 |
| 20260831224044 | 60 | 0 | 0.0 | 4.0 | 0.00 | 0.07 | 0.00 | 86 | 1017.7 |
| 20260831223547 | 60 | 0 | 0.0 | 7.0 | 0.00 | 0.07 | 0.00 | 86 | 1017.8 |
| 20260831223110 | 60 | 0 | 0.0 | 7.0 | 0.00 | 0.07 | 0.00 | 86 | 1017.8 |
| 20260831222545 | 60 | 0 | 0.0 | 7.0 | 0.00 | 0.07 | 0.00 | 86 | 1017.8 |
| 20260831222045 | 60 | 0 | 0.0 | 3.0 | 0.00 | 0.07 | 0.00 | 86 | 1017.7 |
| 20260831221605 | 60 | 0 | 0.0 | 3.0 | 0.00 | 0.07 | 0.00 | 85 | 1017.8 |
| 20260831221046 | 60 | 0 | 0.0 | 5.0 | 0.00 | 0.07 | 0.00 | 85 | 1017.8 |
| 20260831220546 | 61 | 0 | 0.0 | 5.0 | 0.00 | 0.07 | 0.00 | 84 | 1017.7 |
| 20260831220105 | 61 | 0 | 0.0 | 7.0 | 0.00 | 0.07 | 0.00 | 84 | 1017.7 |
| 20260831215544 | 61 | 0 | 0.0 | 7.0 | 0.00 | 0.07 | 0.07 | 84 | 1017.7 |
| 20260831215044 | 61 | 0 | 0.0 | 7.0 | 0.00 | 0.07 | 0.07 | 85 | 1017.7 |
| 20260831214601 | 61 | 223 | 0.0 | 4.0 | 0.00 | 0.07 | 0.07 | 85 | 1017.7 |
| 20260831214049 | 61 | 0 | 0.0 | 10.0 | 0.00 | 0.07 | 0.07 | 85 | 1017.6 |
| 20260831213544 | 61 | 0 | 0.0 | 10.0 | 0.00 | 0.07 | 0.07 | 86 | 1017.6 |
| 20260831213058 | 61 | 0 | 0.0 | 2.0 | 0.00 | 0.07 | 0.07 | 86 | 1017.7 |
| 20260831212545 | 61 | 0 | 0.0 | 4.0 | 0.00 | 0.07 | 0.07 | 87 | 1017.6 |
| 20260831212049 | 61 | 0 | 0.0 | 4.0 | 0.00 | 0.07 | 0.07 | 87 | 1017.6 |
| 20260831211559 | 61 | 0 | 0.0 | 3.0 | 0.00 | 0.07 | 0.07 | 88 | 1017.6 |
| 20260831211044 | 61 | 0 | 0.0 | 3.0 | 0.00 | 0.07 | 0.07 | 88 | 1017.5 |
| 20260831210547 | 61 | 0 | 0.0 | 3.0 | 0.00 | 0.07 | 0.07 | 88 | 1017.4 |
| 20260831210114 | 61 | 0 | 0.0 | 4.0 | 0.00 | 0.07 | 0.07 | 87 | 1017.3 |
| 20260831205546 | 61 | 0 | 0.0 | 4.0 | 0.00 | 0.07 | 0.07 | 87 | 1017.3 |
| 20260831205046 | 61 | 0 | 0.0 | 5.0 | 0.00 | 0.07 | 0.07 | 87 | 1017.3 |
| 20260831204559 | 61 | 0 | 0.0 | 5.0 | 0.00 | 0.07 | 0.07 | 86 | 1017.2 |
| 20260831204046 | 62 | 230 | 0.0 | 4.0 | 0.00 | 0.07 | 0.07 | 86 | 1017.2 |
| 20260831203544 | 62 | 0 | 0.0 | 4.0 | 0.00 | 0.07 | 0.07 | 86 | 1017.1 |
| 20260831203103 | 62 | 0 | 0.0 | 7.0 | 0.00 | 0.07 | 0.07 | 86 | 1017.0 |
| 20260831202546 | 62 | 0 | 0.0 | 7.0 | 0.00 | 0.07 | 0.07 | 86 | 1016.9 |
| 20260831202044 | 62 | 0 | 0.0 | 7.0 | 0.00 | 0.07 | 0.07 | 86 | 1016.7 |
| 20260831201606 | 62 | 0 | 0.0 | 0.0 | 0.00 | 0.07 | 0.07 | 86 | 1016.7 |
| 20260831201047 | 62 | 0 | 0.0 | 0.0 | 0.00 | 0.07 | 0.07 | 85 | 1016.6 |
| 20260831200547 | 62 | 0 | 0.0 | 3.0 | 0.00 | 0.07 | 0.07 | 86 | 1016.6 |
| 20260831200059 | 62 | 0 | 0.0 | 4.0 | 0.00 | 0.07 | 0.07 | 86 | 1016.6 |
| 20260831195545 | 62 | 0 | 0.0 | 6.0 | 0.00 | 0.07 | 0.07 | 86 | 1016.6 |
| 20260831195044 | 62 | 0 | 0.0 | 6.0 | 0.00 | 0.07 | 0.07 | 87 | 1016.5 |
| 20260831194614 | 61 | 0 | 0.0 | 6.0 | 0.00 | 0.07 | 0.07 | 87 | 1016.4 |
| 20260831194047 | 61 | 0 | 0.0 | 1.0 | 0.00 | 0.07 | 0.07 | 87 | 1016.3 |
| 20260831193543 | 61 | 0 | 0.0 | 0.0 | 0.00 | 0.07 | 0.07 | 87 | 1016.3 |
| 20260831193107 | 62 | 0 | 0.0 | 0.0 | 0.00 | 0.07 | 0.07 | 87 | 1016.3 |
| 20260831192546 | 61 | 0 | 0.0 | 0.0 | 0.00 | 0.07 | 0.07 | 87 | 1016.2 |
| 20260831192045 | 61 | 0 | 0.0 | 0.0 | 0.00 | 0.07 | 0.07 | 88 | 1016.1 |
| 20260831191605 | 61 | 0 | 0.0 | 0.0 | 0.00 | 0.07 | 0.07 | 88 | 1016.1 |
| 20260831191045 | 61 | 0 | 0.0 | 0.0 | 0.00 | 0.07 | 0.07 | 88 | 1016.1 |
| 20260831190546 | 61 | 0 | 0.0 | 0.0 | 0.00 | 0.07 | 0.07 | 88 | 1016.0 |
| 20260831190108 | 61 | 0 | 0.0 | 0.0 | 0.00 | 0.07 | 0.07 | 88 | 1015.9 |
| 20260831185545 | 61 | 0 | 0.0 | 0.0 | 0.00 | 0.07 | 0.07 | 88 | 1015.8 |
| 20260831185044 | 61 | 0 | 0.0 | 0.0 | 0.00 | 0.07 | 0.07 | 87 | 1015.7 |
| 20260831184605 | 61 | 0 | 0.0 | 0.0 | 0.00 | 0.07 | 0.07 | 87 | 1015.6 |
| 20260831184047 | 61 | 0 | 0.0 | 4.0 | 0.00 | 0.07 | 0.07 | 86 | 1015.5 |
| 20260831183546 | 62 | 0 | 0.0 | 7.0 | 0.00 | 0.07 | 0.07 | 85 | 1015.4 |
| 20260831183105 | 62 | 0 | 0.0 | 7.0 | 0.00 | 0.07 | 0.07 | 85 | 1015.2 |
| 20260831182545 | 62 | 0 | 0.0 | 4.0 | 0.00 | 0.07 | 0.07 | 85 | 1015.2 |
| 20260831182046 | 62 | 0 | 0.0 | 0.0 | 0.00 | 0.07 | 0.07 | 84 | 1015.1 |
| 20260831181600 | 62 | 0 | 0.0 | 4.0 | 0.00 | 0.07 | 0.07 | 84 | 1015.0 |
| 20260831181046 | 62 | 0 | 0.0 | 6.0 | 0.00 | 0.07 | 0.07 | 84 | 1015.0 |
| 20260831180546 | 62 | 225 | 0.0 | 6.0 | 0.00 | 0.07 | 0.07 | 84 | 1014.7 |
| 20260831180111 | 62 | 0 | 0.0 | 8.0 | 0.00 | 0.07 | 0.07 | 84 | 1014.7 |
| 20260831175548 | 62 | 0 | 0.0 | 8.0 | 0.00 | 0.07 | 0.07 | 83 | 1014.7 |
| 20260831175047 | 63 | 0 | 0.0 | 13.0 | 0.00 | 0.07 | 0.07 | 83 | 1014.6 |
| 20260831174605 | 63 | 227 | 1.0 | 13.0 | 0.00 | 0.07 | 0.07 | 82 | 1014.5 |
| 20260831174050 | 63 | 0 | 1.0 | 10.0 | 0.00 | 0.07 | 0.07 | 82 | 1014.5 |
| 20260831173546 | 63 | 0 | 2.0 | 14.0 | 0.00 | 0.07 | 0.07 | 81 | 1014.4 |
| 20260831173130 | 63 | 0 | 1.0 | 14.0 | 0.00 | 0.07 | 0.07 | 80 | 1014.3 |
| 20260831172547 | 64 | 248 | 3.0 | 12.0 | 0.00 | 0.07 | 0.07 | 80 | 1014.3 |
| 20260831172047 | 63 | 239 | 0.0 | 14.0 | 0.00 | 0.07 | 0.07 | 81 | 1014.2 |
| 20260831171558 | 64 | 0 | 1.0 | 14.0 | 0.00 | 0.07 | 0.07 | 79 | 1014.0 |
| 20260831171046 | 64 | 251 | 0.0 | 11.0 | 0.00 | 0.07 | 0.07 | 79 | 1014.0 |
| 20260831170545 | 64 | 0 | 2.0 | 12.0 | 0.00 | 0.07 | 0.07 | 78 | 1013.8 |
| 20260831170110 | 64 | 0 | 1.0 | 15.0 | 0.00 | 0.07 | 0.07 | 79 | 1013.9 |
| 20260831165544 | 64 | 257 | 1.0 | 15.0 | 0.00 | 0.07 | 0.07 | 80 | 1013.9 |
| 20260831165044 | 64 | 0 | 2.0 | 15.0 | 0.00 | 0.07 | 0.07 | 81 | 1013.7 |
| 20260831164612 | 64 | 236 | 1.0 | 10.0 | 0.00 | 0.07 | 0.07 | 84 | 1013.7 |
| 20260831164050 | 63 | 0 | 1.0 | 9.0 | 0.00 | 0.07 | 0.07 | 85 | 1013.5 |
| 20260831163546 | 63 | 0 | 0.0 | 6.0 | 0.00 | 0.07 | 0.07 | 85 | 1013.4 |
| 20260831163109 | 63 | 0 | 0.0 | 6.0 | 0.00 | 0.07 | 0.07 | 85 | 1013.4 |
| 20260831162547 | 63 | 0 | 0.0 | 6.0 | 0.00 | 0.07 | 0.07 | 85 | 1013.4 |
| 20260831162046 | 64 | 0 | 0.0 | 15.0 | 0.00 | 0.07 | 0.07 | 85 | 1013.4 |
| 20260831161606 | 64 | 0 | 0.0 | 15.0 | 0.00 | 0.07 | 0.07 | 84 | 1013.4 |
| 20260831161044 | 64 | 215 | 4.0 | 16.0 | 0.00 | 0.07 | 0.07 | 83 | 1013.4 |
| 20260831160545 | 64 | 237 | 1.0 | 16.0 | 0.00 | 0.07 | 0.07 | 84 | 1013.4 |
| 20260831160105 | 64 | 0 | 3.0 | 16.0 | 0.00 | 0.07 | 0.07 | 82 | 1013.4 |
| 20260831155546 | 64 | 258 | 2.0 | 8.0 | 0.00 | 0.07 | 0.07 | 85 | 1013.4 |
| 20260831155052 | 64 | 0 | 1.0 | 8.0 | 0.00 | 0.07 | 0.07 | 87 | 1013.3 |
| 20260831154636 | 63 | 0 | 1.0 | 7.0 | 0.00 | 0.07 | 0.07 | 87 | 1013.4 |
| 20260831154044 | 63 | 0 | 0.0 | 12.0 | 0.00 | 0.07 | 0.07 | 89 | 1013.2 |
| 20260831153546 | 63 | 0 | 0.0 | 12.0 | 0.00 | 0.07 | 0.07 | 89 | 1013.4 |
| 20260831153105 | 63 | 229 | 1.0 | 12.0 | 0.00 | 0.07 | 0.07 | 89 | 1013.3 |
| 20260831152545 | 62 | 220 | 0.0 | 6.0 | 0.00 | 0.07 | 0.07 | 90 | 1013.1 |
| 20260831152046 | 62 | 220 | 0.0 | 5.0 | 0.00 | 0.07 | 0.07 | 90 | 1013.2 |
| 20260831151607 | 62 | 0 | 0.0 | 5.0 | 0.03 | 0.07 | 0.07 | 91 | 1013.0 |
| 20260831151046 | 62 | 0 | 0.0 | 10.0 | 0.05 | 0.07 | 0.07 | 91 | 1013.1 |
| 20260831150546 | 63 | 0 | 0.0 | 10.0 | 0.05 | 0.07 | 0.07 | 90 | 1013.0 |
| 20260831150107 | 63 | 0 | 0.0 | 9.0 | 0.05 | 0.07 | 0.07 | 91 | 1013.0 |
| 20260831145545 | 63 | 0 | 1.0 | 7.0 | 0.05 | 0.07 | 0.07 | 93 | 1013.1 |
| 20260831145046 | 63 | 0 | 0.0 | 0.0 | 0.05 | 0.07 | 0.07 | 93 | 1013.1 |
| 20260831144556 | 62 | 0 | 0.0 | 4.0 | 0.05 | 0.07 | 0.07 | 93 | 1012.9 |
| 20260831144046 | 62 | 0 | 0.0 | 4.0 | 0.05 | 0.07 | 0.07 | 93 | 1012.6 |
| 20260831143551 | 62 | 0 | 0.0 | 4.0 | 0.05 | 0.07 | 0.07 | 93 | 1012.5 |
| 20260831143110 | 61 | 0 | 0.0 | 5.0 | 0.05 | 0.07 | 0.07 | 92 | 1012.8 |
| 20260831142547 | 62 | 227 | 0.0 | 5.0 | 0.05 | 0.07 | 0.07 | 91 | 1012.7 |
| 20260831142047 | 62 | 0 | 0.0 | 4.0 | 0.04 | 0.06 | 0.06 | 89 | 1012.5 |
| 20260831141608 | 63 | 0 | 0.0 | 4.0 | 0.01 | 0.03 | 0.03 | 88 | 1012.4 |
| 20260831141046 | 63 | 0 | 0.0 | 4.0 | 0.00 | 0.01 | 0.01 | 88 | 1012.3 |
| 20260831140546 | 63 | 0 | 0.0 | 4.0 | 0.00 | 0.01 | 0.01 | 87 | 1012.2 |
| 20260831135546 | 63 | 0 | 0.0 | 4.0 | 0.00 | 0.01 | 0.01 | 87 | 1012.1 |
| 20260831135046 | 63 | 0 | 0.0 | 4.0 | 0.00 | 0.01 | 0.01 | 86 | 1012.2 |
| 20260831134606 | 63 | 0 | 0.0 | 5.0 | 0.00 | 0.01 | 0.01 | 85 | 1012.3 |
| 20260831134046 | 63 | 0 | 0.0 | 5.0 | 0.00 | 0.01 | 0.01 | 83 | 1012.2 |
| 20260831133542 | 64 | 0 | 0.0 | 16.0 | 0.00 | 0.01 | 0.01 | 81 | 1012.3 |
| 20260831133107 | 65 | 0 | 5.0 | 16.0 | 0.00 | 0.01 | 0.01 | 77 | 1012.3 |
| 20260831132546 | 66 | 241 | 5.0 | 15.0 | 0.00 | 0.01 | 0.01 | 76 | 1012.0 |
| 20260831132046 | 66 | 0 | 3.0 | 14.0 | 0.00 | 0.01 | 0.01 | 76 | 1012.0 |
| 20260831131603 | 66 | 0 | 3.0 | 15.0 | 0.00 | 0.01 | 0.01 | 74 | 1012.0 |
| 20260831131046 | 67 | 0 | 6.0 | 15.0 | 0.00 | 0.01 | 0.01 | 74 | 1012.0 |
| 20260831130548 | 68 | 237 | 1.0 | 18.0 | 0.00 | 0.01 | 0.01 | 75 | 1011.9 |
| 20260831130110 | 68 | 0 | 0.0 | 18.0 | 0.00 | 0.01 | 0.01 | 75 | 1011.8 |
| 20260831125546 | 68 | 200 | 6.0 | 16.0 | 0.00 | 0.01 | 0.01 | 76 | 1011.7 |
| 20260831125047 | 67 | 0 | 0.0 | 14.0 | 0.00 | 0.01 | 0.01 | 80 | 1011.8 |
| 20260831124610 | 66 | 0 | 3.0 | 15.0 | 0.00 | 0.01 | 0.01 | 80 | 1011.9 |
| 20260831124046 | 66 | 239 | 4.0 | 15.0 | 0.00 | 0.01 | 0.01 | 81 | 1012.0 |
| 20260831123546 | 65 | 245 | 7.0 | 15.0 | 0.00 | 0.01 | 0.01 | 82 | 1011.8 |
| 20260831123106 | 65 | 240 | 4.0 | 16.0 | 0.00 | 0.01 | 0.01 | 83 | 1011.9 |
| 20260831122546 | 65 | 224 | 4.0 | 16.0 | 0.00 | 0.01 | 0.01 | 83 | 1012.0 |
| 20260831122046 | 65 | 232 | 3.0 | 13.0 | 0.00 | 0.01 | 0.01 | 84 | 1011.8 |
| 20260831121603 | 65 | 243 | 3.0 | 17.0 | 0.00 | 0.01 | 0.01 | 84 | 1011.8 |
| 20260831121119 | 65 | 249 | 4.0 | 17.0 | 0.00 | 0.01 | 0.01 | 85 | 1011.6 |
| 20260831120546 | 65 | 203 | 1.0 | 14.0 | 0.00 | 0.01 | 0.01 | 88 | 1011.7 |
| 20260831115545 | 62 | 0 | 6.0 | 16.0 | 0.00 | 0.01 | 0.01 | 89 | 1012.0 |
| 20260831115045 | 62 | 0 | 2.0 | 14.0 | 0.00 | 0.01 | 0.01 | 91 | 1012.0 |
| 20260831114607 | 61 | 0 | 2.0 | 21.0 | 0.00 | 0.01 | 0.01 | 90 | 1012.1 |
| 20260831114042 | 61 | 236 | 4.0 | 25.0 | 0.00 | 0.01 | 0.01 | 89 | 1012.2 |
| 20260831113546 | 61 | 248 | 10.0 | 25.0 | 0.00 | 0.01 | 0.01 | 87 | 1012.4 |
| 20260831113105 | 62 | 218 | 9.0 | 24.0 | 0.00 | 0.00 | 0.00 | 84 | 1012.5 |
| 20260831112545 | 64 | 244 | 8.0 | 33.0 | 0.00 | 0.00 | 0.00 | 79 | 1012.4 |
| 20260831112046 | 65 | 257 | 15.0 | 33.0 | 0.00 | 0.00 | 0.00 | 75 | 1012.2 |
| 20260831111624 | 67 | 192 | 12.0 | 27.0 | 0.00 | 0.00 | 0.00 | 70 | 1012.1 |
| 20260831111046 | 68 | 237 | 3.0 | 23.0 | 0.00 | 0.00 | 0.00 | 66 | 1011.6 |
| 20260831110546 | 68 | 146 | 6.0 | 22.0 | 0.00 | 0.00 | 0.00 | 64 | 1011.5 |
| 20260831110110 | 69 | 234 | 5.0 | 22.0 | 0.00 | 0.00 | 0.00 | 63 | 1011.3 |
| 20260831105546 | 69 | 0 | 7.0 | 21.0 | 0.00 | 0.00 | 0.00 | 63 | 1011.3 |
| 20260831105049 | 70 | 253 | 4.0 | 25.0 | 0.00 | 0.00 | 0.00 | 62 | 1011.2 |
| 20260831104610 | 71 | 218 | 7.0 | 25.0 | 0.00 | 0.00 | 0.00 | 61 | 1011.2 |
| 20260831104046 | 70 | 238 | 10.0 | 25.0 | 0.00 | 0.00 | 0.00 | 62 | 1011.3 |
| 20260831103548 | 70 | 271 | 9.0 | 25.0 | 0.00 | 0.00 | 0.00 | 62 | 1011.4 |
| 20260831103106 | 69 | 223 | 9.0 | 25.0 | 0.00 | 0.00 | 0.00 | 63 | 1011.3 |
| 20260831102545 | 70 | 165 | 9.0 | 24.0 | 0.00 | 0.00 | 0.00 | 62 | 1011.4 |
| 20260831102047 | 70 | 215 | 2.0 | 18.0 | 0.00 | 0.00 | 0.00 | 63 | 1011.3 |
| 20260831101606 | 69 | 0 | 3.0 | 18.0 | 0.00 | 0.00 | 0.00 | 65 | 1011.3 |
| 20260831101046 | 70 | 242 | 3.0 | 19.0 | 0.00 | 0.00 | 0.00 | 63 | 1011.5 |
| 20260831100547 | 69 | 0 | 4.0 | 21.0 | 0.00 | 0.00 | 0.00 | 64 | 1011.4 |
| 20260831100108 | 69 | 0 | 9.0 | 21.0 | 0.00 | 0.00 | 0.00 | 63 | 1011.5 |
| 20260831095545 | 69 | 236 | 12.0 | 22.0 | 0.00 | 0.00 | 0.00 | 61 | 1011.5 |
| 20260831095045 | 70 | 238 | 9.0 | 22.0 | 0.00 | 0.00 | 0.00 | 61 | 1011.6 |
| 20260831094618 | 70 | 257 | 4.0 | 20.0 | 0.00 | 0.00 | 0.00 | 63 | 1011.6 |
| 20260831094047 | 70 | 0 | 2.0 | 21.0 | 0.00 | 0.00 | 0.00 | 66 | 1011.7 |
| 20260831093543 | 68 | 242 | 5.0 | 21.0 | 0.00 | 0.00 | 0.00 | 67 | 1011.9 |
| 20260831093103 | 69 | 246 | 6.0 | 22.0 | 0.00 | 0.00 | 0.00 | 67 | 1012.1 |
| 20260831092547 | 69 | 219 | 5.0 | 24.0 | 0.00 | 0.00 | 0.00 | 67 | 1011.9 |
| 20260831092046 | 69 | 221 | 8.0 | 24.0 | 0.00 | 0.00 | 0.00 | 66 | 1011.8 |
| 20260831091606 | 69 | 246 | 3.0 | 18.0 | 0.00 | 0.00 | 0.00 | 67 | 1011.8 |
| 20260831091046 | 69 | 227 | 5.0 | 18.0 | 0.00 | 0.00 | 0.00 | 67 | 1011.6 |
| 20260831090546 | 69 | 0 | 2.0 | 19.0 | 0.00 | 0.00 | 0.00 | 68 | 1011.7 |
| 20260831090108 | 68 | 220 | 5.0 | 20.0 | 0.00 | 0.00 | 0.00 | 69 | 1011.7 |
| 20260831085546 | 68 | 185 | 7.0 | 20.0 | 0.00 | 0.00 | 0.00 | 68 | 1011.8 |
| 20260831085046 | 68 | 239 | 8.0 | 20.0 | 0.00 | 0.00 | 0.00 | 68 | 1011.7 |
| 20260831084557 | 67 | 275 | 10.0 | 20.0 | 0.00 | 0.00 | 0.00 | 68 | 1011.7 |
| 20260831084045 | 68 | 271 | 2.0 | 20.0 | 0.00 | 0.00 | 0.00 | 70 | 1011.6 |
| 20260831083546 | 68 | 254 | 7.0 | 20.0 | 0.00 | 0.00 | 0.00 | 71 | 1011.6 |
| 20260831083106 | 68 | 222 | 6.0 | 20.0 | 0.00 | 0.00 | 0.00 | 71 | 1011.6 |
| 20260831082546 | 67 | 210 | 10.0 | 27.0 | 0.00 | 0.00 | 0.00 | 71 | 1011.5 |
| 20260831082046 | 67 | 0 | 10.0 | 27.0 | 0.00 | 0.00 | 0.00 | 72 | 1011.5 |
| 20260831081609 | 67 | 0 | 5.0 | 21.0 | 0.00 | 0.00 | 0.00 | 74 | 1011.6 |
| 20260831081043 | 66 | 220 | 7.0 | 21.0 | 0.00 | 0.00 | 0.00 | 75 | 1011.6 |
| 20260831080546 | 66 | 0 | 2.0 | 16.0 | 0.00 | 0.00 | 0.00 | 78 | 1011.6 |
| 20260831080104 | 66 | 0 | 2.0 | 15.0 | 0.00 | 0.00 | 0.00 | 77 | 1011.6 |
| 20260831075545 | 66 | 0 | 2.0 | 15.0 | 0.00 | 0.00 | 0.00 | 79 | 1011.7 |
| 20260831075046 | 65 | 235 | 2.0 | 15.0 | 0.00 | 0.00 | 0.00 | 80 | 1011.9 |
| 20260831074604 | 65 | 229 | 3.0 | 15.0 | 0.00 | 0.00 | 0.00 | 78 | 1011.8 |
| 20260831074048 | 65 | 261 | 1.0 | 16.0 | 0.00 | 0.00 | 0.00 | 79 | 1011.8 |
| 20260831073544 | 65 | 239 | 2.0 | 16.0 | 0.00 | 0.00 | 0.00 | 80 | 1011.8 |
| 20260831073106 | 65 | 0 | 4.0 | 16.0 | 0.00 | 0.00 | 0.00 | 79 | 1011.9 |
| 20260831072545 | 65 | 252 | 1.0 | 12.0 | 0.00 | 0.00 | 0.00 | 80 | 1011.9 |
| 20260831072045 | 65 | 234 | 2.0 | 12.0 | 0.00 | 0.00 | 0.00 | 80 | 1012.0 |
| 20260831071604 | 65 | 0 | 3.0 | 13.0 | 0.00 | 0.00 | 0.00 | 80 | 1011.9 |
| 20260831071042 | 65 | 220 | 0.0 | 13.0 | 0.00 | 0.00 | 0.00 | 81 | 1011.9 |
| 20260831070546 | 65 | 206 | 3.0 | 10.0 | 0.00 | 0.00 | 0.00 | 81 | 1011.8 |